Rayong, Thailand

5:07 PM +07 on September 20, 2017 (GMT +0700)
U-Taphao International

Weather History for VTBU - November, 2012

Change the Weather History Date:

Wednesday, November 14, 2012

  Actual Average Record
Temperature  
Mean Temperature 84 °F -  
Max Temperature 91 °F 88 °F 95 °F (2016)
Min Temperature 77 °F 75 °F 69 °F (2008)
Cooling Degree Days 19    
Growing Degree Days 34 (Base 50)    
Moisture  
Dew Point 70 °F    
Average Humidity 70    
Maximum Humidity 83    
Minimum Humidity 49    
Precipitation  
Precipitation 0.00 in - - ()
Sea Level Pressure  
Sea Level Pressure 29.81 in    
Wind  
Wind Speed 3 mph ()    
Max Wind Speed 9 mph    
Max Gust Speed -    
Visibility 5.1 miles    
Events Rain , Thunderstorm    
Averages and records for this station are not official NWS values.
T = Trace of Precipitation, MM = Missing Value Source: Averaged Metar Reports

Daily Weather History Graph

Daily Weather History Graph

Search for Another Location

Airport or City:

Trip Planner

Search our weather history database for the weather conditions in past years. The results will help you decide how hot, cold, wet, or windy it might be!

Date:

Astronomy

Nov. 14, 2012 Rise Set
Actual Time 6:12 AM +07 5:45 PM +07
Civil Twilight 5:50 AM +07 6:07 PM +07
Nautical Twilight 5:24 AM +07 6:33 PM +07
Astronomical Twilight 4:58 AM +07 6:59 PM +07
Moon 6:19 AM +07 (11/14) 6:11 PM +07 (11/14)
Length of Visible Light 12h 17m
Length of Day
11h 33m
New Moon, 0% of the Moon is Illuminated
Nov 14
New Moon
Nov 20
First Quarter
Nov 28
Full
Dec 6
Last Quarter
Dec 13
New

Hourly Weather History & Observations

Time (+07) Temp. Heat Index Dew Point Humidity Pressure Visibility Wind Dir Wind Speed Gust Speed Precip Events Conditions
12:00 AM 80.6 °F 84.6 °F 71.6 °F 74% 29.86 in 4.3 mi Calm Calm - N/A   Mostly Cloudy
12:30 AM 80.6 °F 84.6 °F 71.6 °F 74% 29.86 in 4.3 mi Calm Calm - N/A   Mostly Cloudy
1:00 AM 80.6 °F 84.6 °F 71.6 °F 74% 29.83 in 4.3 mi North 2.3 mph - N/A   Mostly Cloudy
1:30 AM 80.6 °F 84.6 °F 71.6 °F 74% 29.83 in 4.3 mi North 4.6 mph - N/A   Mostly Cloudy
2:00 AM 80.6 °F 84.6 °F 71.6 °F 74% 29.83 in 4.3 mi NE 3.5 mph - N/A   Mostly Cloudy
2:30 AM 80.6 °F 84.6 °F 71.6 °F 74% 29.80 in 4.3 mi Calm Calm - N/A   Mostly Cloudy
5:30 AM 78.8 °F - 69.8 °F 74% 29.80 in 4.3 mi Calm Calm - N/A   Mostly Cloudy
6:00 AM 78.8 °F - 69.8 °F 74% 29.80 in 5.0 mi North 4.6 mph - N/A   Mostly Cloudy
6:30 AM 80.6 °F 83.9 °F 69.8 °F 70% 29.83 in 5.0 mi North 4.6 mph - N/A   Mostly Cloudy
7:00 AM 80.6 °F 83.9 °F 69.8 °F 70% 29.83 in 5.0 mi NE 4.6 mph - N/A   Mostly Cloudy
7:30 AM 82.4 °F 86.3 °F 69.8 °F 66% 29.83 in 5.0 mi NNE 4.6 mph - N/A   Mostly Cloudy
8:00 AM 84.2 °F 88.4 °F 69.8 °F 62% 29.83 in 5.0 mi NE 4.6 mph - N/A   Mostly Cloudy
8:30 AM 86.0 °F 90.4 °F 69.8 °F 58% 29.86 in 5.0 mi ENE 4.6 mph - N/A   Mostly Cloudy
9:00 AM 86.0 °F 89.4 °F 68.0 °F 55% 29.86 in 5.0 mi ENE 5.8 mph - N/A   Mostly Cloudy
9:30 AM 87.8 °F 91.4 °F 68.0 °F 52% 29.86 in 5.0 mi ENE 6.9 mph - N/A   Mostly Cloudy
10:00 AM 87.8 °F 90.4 °F 66.2 °F 49% 29.86 in 5.0 mi NE 5.8 mph - N/A   Mostly Cloudy
10:30 AM 87.8 °F 90.4 °F 66.2 °F 49% 29.86 in 5.0 mi ENE 4.6 mph - N/A   Mostly Cloudy
11:00 AM 89.6 °F 98.2 °F 73.4 °F 59% 29.83 in 5.0 mi ENE 3.5 mph - N/A   Mostly Cloudy
11:30 AM 87.8 °F 92.6 °F 69.8 °F 55% 29.83 in 5.6 mi ENE 3.5 mph - N/A   Mostly Cloudy
12:00 PM 91.4 °F 96.8 °F 69.8 °F 49% 29.83 in 5.6 mi SSW 2.3 mph - N/A   Mostly Cloudy
12:30 PM 89.6 °F 94.7 °F 69.8 °F 52% 29.80 in 5.6 mi SSW 3.5 mph - N/A   Mostly Cloudy
1:00 PM 89.6 °F 94.7 °F 69.8 °F 52% 29.80 in 5.6 mi SSW 4.6 mph - N/A   Mostly Cloudy
1:30 PM 87.8 °F 93.8 °F 71.6 °F 58% 29.80 in 5.6 mi SSW 6.9 mph - N/A   Mostly Cloudy
2:00 PM 87.8 °F 95.6 °F 73.4 °F 62% 29.80 in 5.6 mi SW 9.2 mph - N/A   Mostly Cloudy
2:30 PM 78.8 °F - 71.6 °F 78% 29.77 in 4.3 mi NW 6.9 mph - N/A Rain Light Rain Showers
3:00 PM 80.6 °F 84.6 °F 71.6 °F 74% 29.77 in 4.3 mi NNW 8.1 mph - N/A Thunderstorm Thunderstorm
3:30 PM 78.8 °F - 69.8 °F 74% 29.77 in 5.6 mi North 4.6 mph - N/A Thunderstorm Thunderstorm
4:00 PM 80.6 °F 83.9 °F 69.8 °F 70% 29.77 in 6.2 mi North 3.5 mph - N/A   Mostly Cloudy
4:30 PM 80.6 °F 83.9 °F 69.8 °F 70% 29.77 in 6.2 mi NNW 3.5 mph - N/A   Mostly Cloudy
5:00 PM 80.6 °F 83.9 °F 69.8 °F 70% 29.77 in 6.2 mi NNW 3.5 mph - N/A   Mostly Cloudy
5:30 PM 78.8 °F - 71.6 °F 78% 29.77 in 5.6 mi NNW 3.5 mph - N/A   Mostly Cloudy
6:00 PM 78.8 °F - 69.8 °F 74% 29.77 in 5.6 mi Calm Calm - N/A   Mostly Cloudy
6:30 PM 77.0 °F - 71.6 °F 83% 29.77 in 5.6 mi Calm Calm - N/A   Mostly Cloudy
7:00 PM 77.0 °F - 69.8 °F 78% 29.80 in 5.6 mi Calm Calm - N/A   Mostly Cloudy
7:30 PM 77.0 °F - 69.8 °F 78% 29.80 in 5.6 mi Calm Calm - N/A   Mostly Cloudy
8:00 PM 77.0 °F - 69.8 °F 78% 29.80 in 5.6 mi Calm Calm - N/A   Mostly Cloudy
8:30 PM 77.0 °F - 69.8 °F 78% 29.80 in 5.6 mi Calm Calm - N/A   Mostly Cloudy
9:00 PM 77.0 °F - 71.6 °F 83% 29.83 in 5.0 mi Calm Calm - N/A   Mostly Cloudy
9:30 PM 77.0 °F - 71.6 °F 83% 29.83 in 5.0 mi Calm Calm - N/A   Mostly Cloudy
10:00 PM 77.0 °F - 71.6 °F 83% 29.83 in 5.0 mi Calm Calm - N/A   Mostly Cloudy
10:30 PM 77.0 °F - 71.6 °F 83% 29.83 in 5.0 mi Calm Calm - N/A   Mostly Cloudy
11:00 PM 77.0 °F - 71.6 °F 83% 29.83 in 5.0 mi Calm Calm - N/A   Mostly Cloudy
11:30 PM 77.0 °F - 71.6 °F 83% 29.83 in 4.3 mi Calm Calm - N/A   Mostly Cloudy